When you browse on this site, cookies collect data to enhance your experience and personalize the content and advertising you see.
Visit our Privacy Policy to learn more. By continuing to use the site, you agree to this use of cookies and data.
  • Em Portugal
  • Lista de países
  • Para 7 dias
  • Temperatura da água
  • Mapa do tempo
  • Widgets de tempo
  • user-avatar
    Iniciar Sessão

    Previsão horária em Chester

    Hoje, 7 Abril, Terça-feira

    Tempo Temperatura Precipitação Vento Pressão Humidade
    00:00 +12°C° 0 mm 0 m/s 761 mmHg 44%
    01:00 +12°C° 0 mm 0 m/s 761 mmHg 45%
    02:00 +11°C° 0 mm 0 m/s 761 mmHg 46%
    03:00 +12°C° 0 mm 1 m/s 761 mmHg 47%
    04:00 +11°C° 0 mm 1 m/s 760 mmHg 49%
    05:00 +10°C° 0 mm 0 m/s 760 mmHg 48%
    06:00 +11°C° 0 mm 0 m/s 760 mmHg 48%
    07:00 +11°C° 0 mm 0 m/s 760 mmHg 48%
    08:00 +12°C° 0 mm 0 m/s 760 mmHg 48%
    09:00 +12°C° 0 mm 0 m/s 760 mmHg 48%
    10:00 +14°C° 0 mm 1 m/s 759 mmHg 48%
    11:00 +15°C° 0 mm 1 m/s 759 mmHg 48%
    12:00 +16°C° 0 mm 2 m/s 758 mmHg 48%
    13:00 +17°C° 0 mm 2 m/s 758 mmHg 48%
    14:00 +17°C° 0 mm 2 m/s 757 mmHg 50%
    15:00 +18°C° 0 mm 2 m/s 756 mmHg 52%
    16:00 +19°C° 0 mm 2 m/s 755 mmHg 54%
    17:00 +18°C° 0.2 mm 2 m/s 755 mmHg 60%
    18:00 +16°C° 0.2 mm 2 m/s 755 mmHg 65%
    19:00 +15°C° 0.2 mm 2 m/s 754 mmHg 71%
    20:00 +15°C° 0.1 mm 2 m/s 754 mmHg 75%
    21:00 +14°C° 0.1 mm 2 m/s 753 mmHg 78%
    22:00 +14°C° 0.1 mm 1 m/s 753 mmHg 82%
    23:00 +14°C° 0.1 mm 1 m/s 752 mmHg 85%

    Amanhã, 8 Abril, Quarta-feira

    Tempo Temperatura Precipitação Vento Pressão Humidade
    00:00 +14°C° 0.1 mm 2 m/s 751 mmHg 89%
    01:00 +13°C° 0.1 mm 2 m/s 750 mmHg 93%
    02:00 +13°C° 0 mm 2 m/s 750 mmHg 93%
    03:00 +13°C° 0 mm 2 m/s 749 mmHg 93%
    04:00 +13°C° 0 mm 2 m/s 749 mmHg 93%
    05:00 +14°C° 0.1 mm 1 m/s 749 mmHg 92%
    06:00 +14°C° 0.1 mm 1 m/s 749 mmHg 91%
    07:00 +14°C° 0.1 mm 1 m/s 749 mmHg 91%
    08:00 +18°C° 0 mm 1 m/s 749 mmHg 81%
    09:00 +19°C° 0 mm 2 m/s 749 mmHg 72%
    10:00 +21°C° 0 mm 2 m/s 749 mmHg 62%
    11:00 +22°C° 1 mm 3 m/s 748 mmHg 60%
    12:00 +24°C° 1 mm 3 m/s 748 mmHg 58%
    13:00 +25°C° 1 mm 4 m/s 748 mmHg 56%
    14:00 +25°C° 0.6 mm 4 m/s 748 mmHg 55%
    15:00 +23°C° 0.6 mm 4 m/s 747 mmHg 55%
    16:00 +23°C° 0.6 mm 4 m/s 747 mmHg 54%
    17:00 +22°C° 0.4 mm 4 m/s 748 mmHg 60%
    18:00 +20°C° 0.4 mm 4 m/s 748 mmHg 66%
    19:00 +19°C° 0.4 mm 3 m/s 749 mmHg 72%
    20:00 +17°C° 0 mm 3 m/s 750 mmHg 76%
    21:00 +16°C° 0 mm 2 m/s 750 mmHg 80%
    22:00 +15°C° 0 mm 2 m/s 751 mmHg 84%
    23:00 +14°C° 0 mm 2 m/s 750 mmHg 86%

    Depois de amanhã, 9 Abril, Quinta-feira

    Tempo Temperatura Precipitação Vento Pressão Humidade
    00:00 +14°C° 0 mm 1 m/s 750 mmHg 88%
    01:00 +13°C° 0 mm 1 m/s 750 mmHg 89%
    02:00 +13°C° 0 mm 1 m/s 750 mmHg 89%
    03:00 +13°C° 0 mm 2 m/s 749 mmHg 90%
    04:00 +13°C° 0 mm 2 m/s 749 mmHg 90%
    05:00 +13°C° 0 mm 2 m/s 749 mmHg 90%
    06:00 +12°C° 0 mm 3 m/s 749 mmHg 90%
    07:00 +12°C° 0 mm 3 m/s 749 mmHg 90%
    08:00 +13°C° 0 mm 4 m/s 747 mmHg 86%
    09:00 +14°C° 0 mm 5 m/s 745 mmHg 82%
    10:00 +15°C° 0 mm 6 m/s 744 mmHg 79%
    11:00 +16°C° 0.9 mm 8 m/s 743 mmHg 74%
    12:00 +17°C° 0.9 mm 10 m/s 742 mmHg 69%
    13:00 +17°C° 0.9 mm 11 m/s 742 mmHg 64%
    14:00 +16°C° 0.3 mm 11 m/s 743 mmHg 56%
    15:00 +14°C° 0.3 mm 10 m/s 744 mmHg 48%
    16:00 +13°C° 0.3 mm 9 m/s 744 mmHg 39%
    17:00 +12°C° 0 mm 8 m/s 745 mmHg 38%
    18:00 +11°C° 0 mm 7 m/s 745 mmHg 37%
    19:00 +10°C° 0 mm 6 m/s 746 mmHg 37%
    20:00 +9°C° 0 mm 6 m/s 746 mmHg 43%
    21:00 +8°C° 0 mm 6 m/s 747 mmHg 49%
    22:00 +7°C° 0 mm 6 m/s 747 mmHg 55%
    23:00 +5°C° 0 mm 6 m/s 747 mmHg 56%

    10 Abril, Sexta-feira

    Tempo Temperatura Precipitação Vento Pressão Humidade
    00:00 +5°C° 0 mm 6 m/s 747 mmHg 56%
    01:00 +4°C° 0 mm 6 m/s 748 mmHg 56%
    02:00 +5°C° 0 mm 5 m/s 748 mmHg 55%
    03:00 +3°C° 0 mm 5 m/s 748 mmHg 54%
    04:00 +2°C° 0 mm 5 m/s 748 mmHg 52%
    05:00 +3°C° 0 mm 6 m/s 748 mmHg 51%
    06:00 +3°C° 0 mm 6 m/s 748 mmHg 50%
    07:00 +3°C° 0 mm 7 m/s 748 mmHg 49%
    08:00 +4°C° 0 mm 7 m/s 748 mmHg 46%
    09:00 +5°C° 0 mm 8 m/s 748 mmHg 43%
    10:00 +6°C° 0 mm 8 m/s 748 mmHg 40%
    11:00 +7°C° 0 mm 9 m/s 747 mmHg 39%
    12:00 +8°C° 0 mm 9 m/s 747 mmHg 38%
    13:00 +10°C° 0 mm 9 m/s 747 mmHg 38%
    14:00 +10°C° 0.1 mm 9 m/s 747 mmHg 38%
    15:00 +10°C° 0.1 mm 9 m/s 748 mmHg 39%
    16:00 +10°C° 0.1 mm 9 m/s 748 mmHg 40%
    17:00 +9°C° 0 mm 8 m/s 749 mmHg 44%
    18:00 +7°C° 0 mm 8 m/s 750 mmHg 48%
    19:00 +6°C° 0 mm 7 m/s 751 mmHg 52%
    20:00 +5°C° 0 mm 7 m/s 752 mmHg 53%
    21:00 +4°C° 0 mm 7 m/s 753 mmHg 54%
    22:00 +3°C° 0 mm 7 m/s 754 mmHg 55%
    23:00 +3°C° 0 mm 6 m/s 755 mmHg 56%

    11 Abril, Sábado

    Tempo Temperatura Precipitação Vento Pressão Humidade
    00:00 +2°C° 0 mm 6 m/s 755 mmHg 56%
    01:00 +2°C° 0 mm 6 m/s 756 mmHg 57%
    02:00 +2°C° 0 mm 5 m/s 756 mmHg 57%
    03:00 +1°C° 0 mm 5 m/s 757 mmHg 57%
    04:00 +1°C° 0 mm 5 m/s 757 mmHg 56%
    05:00 +1°C° 0 mm 5 m/s 757 mmHg 55%
    06:00 +1°C° 0 mm 5 m/s 758 mmHg 54%
    07:00 +2°C° 0 mm 5 m/s 758 mmHg 53%
    08:00 +3°C° 0 mm 5 m/s 759 mmHg 49%
    09:00 +6°C° 0 mm 5 m/s 759 mmHg 45%
    10:00 +7°C° 0 mm 5 m/s 759 mmHg 40%
    11:00 +8°C° 0 mm 5 m/s 759 mmHg 38%
    12:00 +9°C° 0 mm 5 m/s 759 mmHg 36%
    13:00 +10°C° 0 mm 6 m/s 759 mmHg 34%
    14:00 +12°C° 0 mm 5 m/s 759 mmHg 34%
    15:00 +12°C° 0 mm 5 m/s 759 mmHg 35%
    16:00 +12°C° 0 mm 5 m/s 759 mmHg 35%
    17:00 +10°C° 0 mm 5 m/s 759 mmHg 38%
    18:00 +10°C° 0 mm 4 m/s 760 mmHg 40%
    19:00 +9°C° 0 mm 3 m/s 761 mmHg 43%
    20:00 +9°C° 0 mm 3 m/s 761 mmHg 45%
    21:00 +8°C° 0 mm 3 m/s 762 mmHg 46%
    22:00 +8°C° 0 mm 3 m/s 763 mmHg 47%
    23:00 +7°C° 0 mm 2 m/s 763 mmHg 48%

    12 Abril, Domingo

    Tempo Temperatura Precipitação Vento Pressão Humidade
    00:00 +7°C° 0 mm 2 m/s 763 mmHg 49%
    01:00 +7°C° 0 mm 1 m/s 763 mmHg 50%
    02:00 +7°C° 0 mm 1 m/s 764 mmHg 50%
    03:00 +6°C° 0 mm 0 m/s 764 mmHg 50%
    04:00 +5°C° 0 mm 0 m/s 764 mmHg 50%
    05:00 +6°C° 0 mm 0 m/s 765 mmHg 49%
    06:00 +6°C° 0 mm 0 m/s 765 mmHg 49%
    07:00 +8°C° 0 mm 1 m/s 766 mmHg 49%
    08:00 +10°C° 0 mm 1 m/s 766 mmHg 47%
    09:00 +10°C° 0 mm 2 m/s 766 mmHg 44%
    10:00 +12°C° 0 mm 3 m/s 766 mmHg 42%
    11:00 +13°C° 0 mm 3 m/s 765 mmHg 40%
    12:00 +14°C° 0 mm 4 m/s 765 mmHg 39%
    13:00 +15°C° 0 mm 5 m/s 764 mmHg 37%
    14:00 +15°C° 0 mm 5 m/s 764 mmHg 40%
    15:00 +14°C° 0 mm 5 m/s 764 mmHg 42%
    16:00 +14°C° 0 mm 6 m/s 763 mmHg 44%
    17:00 +13°C° 0 mm 5 m/s 763 mmHg 49%
    18:00 +13°C° 0 mm 5 m/s 762 mmHg 53%
    19:00 +12°C° 0 mm 5 m/s 762 mmHg 58%
    20:00 +12°C° 0 mm 5 m/s 762 mmHg 61%
    21:00 +11°C° 0 mm 4 m/s 761 mmHg 64%
    22:00 +11°C° 0 mm 4 m/s 761 mmHg 66%
    23:00 +10°C° 2.1 mm 5 m/s 760 mmHg 73%
    Mostrar mais